This demonstration page uses our WeatherBlox Daily Observations layout. Learn more.

Left ArrowRight Arrow

Hourly Observations for September 13, 2018

Temp ( °F °C ) Dew Point ( °F °C ) Humidity (%) Winds ( mph kmh ) Pressure ( in mb ) Visibility ( mi km ) Precip ( " mm )
12:53 am 00:53 Clear 70 21.1 60 15.6 71 71 SE 7 11 29.89 1012 10 16 0.00 0.00
1:53 am 01:53 Clear 68 20 61 16.1 78 78 SE 7 11 29.89 1012 10 16 0.00 0.00
2:53 am 02:53 Clear 69 20.6 62 16.7 78 78 SE 9 15 29.88 1012 10 16 0.00 0.00
3:53 am 03:53 Clear 67 19.4 62 16.7 84 84 E 5 7 29.88 1012 10 16 0.00 0.00
4:53 am 04:53 Clear 67 19.4 63 17.2 87 87 ESE 7 11 29.88 1012 10 16 0.00 0.00
5:53 am 05:53 Clear 67 19.4 63 17.2 87 87 ESE 10 17 29.88 1012 10 16 0.00 0.00
6:53 am 06:53 Clear 67 19.4 64 17.8 91 91 SE 8 13 29.89 1012 10 16 0.00 0.00
7:53 am 07:53 Sunny 67 19.4 65 18.3 93 93 SE 12 19 29.91 1013 10 16 0.00 0.00
8:53 am 08:53 Sunny 70 21.1 66 18.9 87 87 SE 13 20 29.93 1013 10 16 0.00 0.00
9:53 am 09:53 Mostly Sunny 74 23.3 66 18.9 76 76 SSE 16 26 29.93 1014 10 16 0.00 0.00
10:53 am 10:53 Sunny 78 25.6 66 18.9 67 67 SSE 14 22 29.95 1014 10 16 0.00 0.00
11:53 am 11:53 Sunny 80 26.7 65 18.3 60 60 SSE 13 20 29.95 1014 10 16 0.00 0.00
12:53 pm 12:53 Sunny 83 28.3 65 18.3 55 55 SE 15 24 29.93 1014 10 16 0.00 0.00
1:53 pm 13:53 Sunny 85 29.4 63 17.2 48 48 S 9 15 29.91 1013 10 16 0.00 0.00
2:53 pm 14:53 Sunny 87 30.6 60 15.6 40 40 S 10 17 29.89 1012 10 16 0.00 0.00
3:53 pm 15:53 Mostly Sunny 89 31.7 61 16.1 39 39 SSE 13 20 29.88 1012 10 16 0.00 0.00
4:53 pm 16:53 Partly Cloudy 89 31.7 61 16.1 39 39 SE 12 19 29.86 1011 10 16 0.00 0.00
5:53 pm 17:53 Partly Cloudy 88 31.1 60 15.6 39 39 SE 15 24 29.86 1011 10 16 0.00 0.00
6:53 pm 18:53 Mostly Cloudy 87 30.6 61 16.1 42 42 SE 13 20 29.86 1011 10 16 0.00 0.00
7:53 pm 19:53 Sunny 83 28.3 62 16.7 49 49 SE 7 11 29.87 1012 10 16 0.00 0.00
8:53 pm 20:53 Clear 79 26.1 63 17.2 58 58 SE 8 13 29.88 1012 10 16 0.00 0.00
9:53 pm 21:53 Clear 78 25.6 62 16.7 58 58 SE 9 15 29.90 1012 10 16 0.00 0.00
10:53 pm 22:53 Clear 75 23.9 63 17.2 66 66 SE 9 15 29.91 1013 10 16 0.00 0.00
11:53 pm 23:53 Clear 73 22.8 63 17.2 71 71 SE 7 11 29.91 1013 10 16 0.00 0.00

Powered by AerisWeather